NA4DL Weather Reports


Display with metric or nautical units.
time (UTC)temp
F
wind
direction
speed
MPH
gust
MPH
rain 1hr
in
rain 24hr
in
rain mn
in
humidity
%
barometer
mb
20260906012018 84 107 0.0 1.0 0.00 0.00 0.00 72 1011.1
20260906011038 84 85 0.0 1.0 0.00 0.00 0.00 72 1011.2
20260906010018 85 117 0.0 1.0 0.00 0.00 0.00 71 1011.2
20260906005018 86 106 0.0 1.0 0.00 0.00 0.00 70 1011.0
20260906004018 87 75 0.0 1.0 0.00 0.00 0.00 69 1010.9
20260906003019 88 108 1.0 1.0 0.00 0.00 0.00 65 1010.7
20260906002019 89 97 1.0 1.0 0.00 0.00 0.00 62 1010.8
20260906001019 91 98 1.0 2.0 0.00 0.00 0.00 60 1010.8
20260906000019 92 84 1.0 2.0 0.00 0.00 0.00 57 1010.9
20260905235019 93 82 1.0 2.0 0.00 0.00 0.00 54 1011.0
20260905234019 93 75 1.0 2.0 0.00 0.00 0.00 52 1011.1
20260905233017 93 78 1.0 2.0 0.00 0.00 0.00 52 1011.0
20260905232057 94 75 1.0 2.0 0.00 0.00 0.00 50 1010.9
20260905231020 96 77 1.0 2.0 0.00 0.00 0.00 49 1010.8
20260905230020 96 73 1.0 3.0 0.00 0.00 0.00 45 1010.8
20260905225020 98 61 1.0 4.0 0.00 0.00 0.00 44 1010.8
20260905224017 100 83 2.0 6.0 0.00 0.00 0.00 42 1010.8
20260905223018 103 72 2.0 3.0 0.00 0.00 0.00 40 1010.8
20260905222018 104 70 2.0 4.0 0.00 0.00 0.00 39 1010.8
20260905221018 103 56 2.0 4.0 0.00 0.00 0.00 40 1011.0
20260905220018 103 55 2.0 5.0 0.00 0.00 0.00 39 1011.0
20260905215018 103 59 2.0 5.0 0.00 0.00 0.00 39 1010.9
20260905214018 104 58 2.0 5.0 0.00 0.00 0.00 39 1010.9
20260905213039 103 63 2.0 4.0 0.00 0.00 0.00 40 1010.9
20260905212019 102 76 2.0 7.0 0.00 0.00 0.00 41 1011.0
20260905211039 100 66 2.0 4.0 0.00 0.00 0.00 41 1011.1
20260905210019 99 74 2.0 4.0 0.00 0.00 0.00 43 1011.2
20260905205016 99 138 2.0 4.0 0.00 0.00 0.00 42 1011.4
20260905204019 100 14 3.0 5.0 0.00 0.00 0.00 43 1011.5
20260905203019 101 60 3.0 6.0 0.00 0.00 0.00 41 1011.5
20260905202020 101 49 2.0 6.0 0.00 0.00 0.00 42 1011.6
20260905201020 100 61 2.0 4.0 0.00 0.00 0.00 43 1011.8
20260905200037 101 88 2.0 6.0 0.00 0.00 0.00 41 1012.0
20260905195017 100 29 2.0 5.0 0.00 0.00 0.00 42 1012.2
20260905194017 99 73 3.0 6.0 0.00 0.00 0.00 43 1012.2
20260905193020 99 64 2.0 5.0 0.00 0.00 0.00 44 1012.3
20260905192020 100 206 3.0 6.0 0.00 0.00 0.00 42 1012.3
20260905191018 99 48 2.0 5.0 0.00 0.00 0.00 43 1012.6
20260905190018 98 70 2.0 5.0 0.00 0.00 0.00 44 1012.9
20260905185018 99 53 2.0 4.0 0.00 0.00 0.00 43 1013.0
20260905184018 98 44 2.0 4.0 0.00 0.00 0.00 43 1013.1
20260905183018 97 138 2.0 4.0 0.00 0.00 0.00 43 1013.3
20260905182018 97 126 2.0 6.0 0.00 0.00 0.00 43 1013.3
20260905181018 96 268 3.0 7.0 0.00 0.00 0.00 44 1013.5
20260905180019 95 247 2.0 6.0 0.00 0.00 0.00 46 1013.5
20260905175018 95 201 2.0 5.0 0.00 0.00 0.00 47 1013.5
20260905174019 96 270 3.0 7.0 0.00 0.00 0.00 46 1013.6
20260905173019 96 48 2.0 3.0 0.00 0.00 0.00 46 1013.7
20260905172019 95 209 2.0 4.0 0.00 0.00 0.00 47 1013.7
20260905171019 95 61 2.0 3.0 0.00 0.00 0.00 49 1013.8
20260905170016 94 75 2.0 4.0 0.00 0.00 0.00 49 1013.9
20260905165100 93 76 1.0 3.0 0.00 0.00 0.00 50 1014.0
20260905164020 92 281 2.0 5.0 0.00 0.00 0.00 49 1014.1
20260905163020 92 73 2.0 3.0 0.00 0.00 0.00 55 1014.3
20260905162020 91 185 2.0 5.0 0.00 0.00 0.00 55 1014.3
20260905161017 91 172 1.0 3.0 0.00 0.00 0.00 57 1014.4
20260905160020 90 337 1.0 2.0 0.00 0.00 0.00 58 1014.5
20260905155040 89 37 1.0 3.0 0.00 0.00 0.00 61 1014.6
20260905154041 88 231 1.0 3.0 0.00 0.00 0.00 63 1014.6
20260905153021 87 255 1.0 3.0 0.00 0.00 0.00 64 1014.6
20260905152021 87 258 1.0 3.0 0.00 0.00 0.00 64 1014.7
20260905151021 87 288 1.0 3.0 0.00 0.00 0.00 65 1014.8
20260905150021 86 259 1.0 2.0 0.00 0.00 0.00 66 1014.8
20260905145021 85 61 0.0 1.0 0.00 0.00 0.00 68 1014.9
20260905144022 84 248 0.0 2.0 0.00 0.00 0.00 71 1014.9
20260905143022 84 76 0.0 0.0 0.00 0.00 0.00 70 1014.8
20260905142022 83 246 1.0 3.0 0.00 0.00 0.00 73 1014.8
20260905141022 82 70 0.0 1.0 0.00 0.00 0.00 75 1014.7
20260905140022 81 320 0.0 1.0 0.00 0.00 0.00 75 1014.7
20260905135042 80 30 0.0 1.0 0.00 0.00 0.00 78 1014.7
20260905134022 79 23 0.0 0.0 0.00 0.00 0.00 79 1014.8
20260905133023 78 0.0 0.0 0.00 0.00 0.00 82 1014.8
20260905132023 77 304 0.0 1.0 0.00 0.00 0.00 85 1014.9
20260905131023 76 1 0.0 1.0 0.00 0.00 0.00 86 1014.8
20260905130023 76 0.0 0.0 0.00 0.00 0.00 87 1014.8
20260905125044 75 321 0.0 1.0 0.00 0.00 0.00 87 1014.8
20260905124023 75 111 0.0 0.0 0.00 0.00 0.00 88 1014.9
20260905123023 74 325 0.0 0.0 0.00 0.00 0.00 89 1014.8
20260905122044 74 9 0.0 1.0 0.00 0.00 0.00 89 1014.6
20260905121024 74 206 0.0 1.0 0.00 0.00 0.00 89 1014.5
20260905120024 73 18 0.0 1.0 0.00 0.00 0.00 89 1014.4
20260905115024 73 91 0.0 1.0 0.00 0.00 0.00 89 1014.3
20260905114024 73 96 0.0 1.0 0.00 0.00 0.00 89 1014.2
20260905113044 73 76 0.0 2.0 0.00 0.00 0.00 89 1014.1
20260905112025 73 41 0.0 1.0 0.00 0.00 0.00 89 1014.0
20260905111025 73 13 0.0 0.0 0.00 0.00 0.00 89 1013.9
20260905110025 73 22 0.0 1.0 0.00 0.00 0.00 89 1013.7
20260905105025 73 331 0.0 1.0 0.00 0.00 0.00 89 1013.6
20260905104045 73 29 0.0 0.0 0.00 0.00 0.00 89 1013.5
20260905103045 73 66 0.0 1.0 0.00 0.00 0.00 89 1013.5
20260905102025 73 348 0.0 1.0 0.00 0.00 0.00 88 1013.4
20260905101025 73 53 0.0 1.0 0.00 0.00 0.00 88 1013.4
20260905100026 73 47 0.0 1.0 0.00 0.00 0.00 88 1013.4
20260905095046 73 357 0.0 1.0 0.00 0.00 0.00 88 1013.4
20260905094026 73 113 0.0 1.0 0.00 0.00 0.00 88 1013.4
20260905093026 73 115 0.0 1.0 0.00 0.00 0.00 88 1013.4
20260905092049 73 24 0.0 1.0 0.00 0.00 0.00 88 1013.4
20260905091027 73 20 0.0 1.0 0.00 0.00 0.00 88 1013.4
20260905090107 73 314 0.0 0.0 0.00 0.00 0.00 87 1013.4
20260905085027 74 156 0.0 1.0 0.00 0.00 0.00 87 1013.4
20260905084027 74 11 0.0 0.0 0.00 0.00 0.00 87 1013.4
20260905083027 74 220 0.0 1.0 0.00 0.00 0.00 87 1013.4
20260905082028 74 264 0.0 1.0 0.00 0.00 0.00 87 1013.4
20260905081048 74 21 0.0 1.0 0.00 0.00 0.00 87 1013.5
20260905080048 74 51 0.0 1.0 0.00 0.00 0.00 87 1013.5
20260905075028 74 331 0.0 1.0 0.00 0.00 0.00 87 1013.5
20260905074028 74 2 0.0 1.0 0.00 0.00 0.00 87 1013.5
20260905073028 74 77 0.0 1.0 0.00 0.00 0.00 87 1013.5
20260905072029 74 339 0.0 0.0 0.00 0.00 0.00 86 1013.5
20260905071028 75 34 0.0 1.0 0.00 0.00 0.00 87 1013.5
20260905070029 75 318 0.0 1.0 0.00 0.00 0.00 86 1013.4
20260905065029 75 75 0.0 0.0 0.00 0.00 0.00 86 1013.4
20260905064029 75 56 0.0 0.0 0.00 0.00 0.00 86 1013.4
20260905063029 75 102 0.0 1.0 0.00 0.00 0.00 86 1013.4
20260905062029 75 103 0.0 0.0 0.00 0.00 0.00 86 1013.4
20260905061030 75 11 0.0 1.0 0.00 0.00 0.00 86 1013.5
20260905060030 75 337 0.0 0.0 0.00 0.00 0.00 86 1013.5
20260905055030 75 103 0.0 1.0 0.00 0.00 0.00 86 1013.6
20260905054030 75 32 0.0 0.0 0.00 0.00 0.00 85 1013.7
20260905053030 76 352 0.0 1.0 0.00 0.00 0.00 85 1013.8
20260905052031 76 45 0.0 1.0 0.00 0.00 0.00 85 1013.7
20260905051030 76 304 0.0 1.0 0.00 0.00 0.00 84 1013.8
20260905050031 76 89 0.0 1.0 0.00 0.00 0.00 84 1013.8
20260905045031 76 347 0.0 1.0 0.00 0.00 0.00 84 1013.9
20260905044051 76 318 0.0 1.0 0.00 0.00 0.00 83 1013.9
20260905043031 77 84 0.0 1.0 0.00 0.00 0.00 83 1013.9
20260905042031 77 341 0.0 1.0 0.00 0.00 0.00 82 1013.8
20260905041032 77 127 0.0 1.0 0.00 0.00 0.00 82 1013.8
20260905040052 77 3 0.0 0.0 0.00 0.00 0.00 81 1013.8
20260905035032 77 127 0.0 0.0 0.00 0.00 0.00 81 1013.8
20260905034017 78 320 0.0 1.0 0.00 0.00 0.00 80 1013.9
20260905033017 78 70 0.0 1.0 0.00 0.00 0.00 79 1014.0
20260905032017 78 45 0.0 1.0 0.00 0.00 0.00 79 1014.0
20260905031057 78 0.0 0.0 0.00 0.00 0.00 78 1014.2
20260905030018 78 249 0.0 1.0 0.00 0.00 0.00 78 1014.2
20260905025058 78 112 0.0 1.0 0.00 0.00 0.00 77 1014.4
20260905024018 78 98 0.0 1.0 0.00 0.00 0.00 77 1014.4
20260905023038 79 32 0.0 1.0 0.00 0.00 0.00 76 1014.4
20260905022018 79 16 0.0 1.0 0.00 0.00 0.00 74 1014.4
20260905021018 79 322 0.0 1.0 0.00 0.00 0.00 73 1014.4
20260905020019 79 32 0.0 0.0 0.00 0.00 0.00 73 1014.4
20260905015019 79 243 0.0 1.0 0.00 0.00 0.00 73 1014.4
20260905014040 79 27 1.0 1.0 0.00 0.00 0.00 71 1014.2
20260905013040 80 41 0.0 1.0 0.00 0.00 0.00 71 1014.0